STARLINK-34279

Last updated on Thu Jul 03 2025 00:02:07 GMT+0000 (Coordinated Universal Time)

1 64389U 25127V 25183.58335648 -.01563140 00000+0 -18755-1 0 9996 2 64389 43.0001 155.3518 0001341 275.0696 345.1966 15.63124201 4207
UTC large
Height (km)
Speed (km/s)
/
Latitude / Longitude
Inclination (degrees)
Orbital Period (minutes)
Azimuth
Elevation
Range (km)
Doppler Factor

Next 0 passes for location: London (51.5072 / 0.1276)

Sorry there are no passes over London.